Flag for Germany Weather past 2 weeks in Nuremberg, Bavaria, Germany

Now
73 °F

Sunny.


Feels Like: 76 °F
Forecast: 57 / 80 °F
Wind: 5 mph from North

Location: Nuernberg

Current Time: Jul 31, 2015 at 5:50:01 PM

Latest Report: Jul 31, 2015 at 5:20 PM


Visibility: 10 mi

Pressure: 30.01 "Hg

Humidity: 29%

Dew point: 39 °F

Location of NurembergLocation

Historic Weather in Nuremberg — Graph

°F

Nuremberg temperature yesterday

Maximum temperature yesterday: 70 °F (at 2:50 PM)
Minimum temperature yesterday: 50 °F (at 1:50 AM)
Average temperature yesterday: 60 °F

Past Weeks' High & Low Weather Summary

 TemperatureHumidityPressure
High97 °F (Jul 17, 4:50 PM)100% (Jul 23, 1:50 AM)30.12 "Hg (Jul 23, 1:50 AM)
Low43 °F (Jul 31, 5:50 AM)21% (Jul 17, 1:20 PM)29.68 "Hg (Jul 25, 12:50 AM)
Average70 °F60%29.93 "Hg
* Reported Jul 16 4:20 PM — Jul 31 4:50 PM, Nuremberg, Weather by CustomWeather, © 2015

Note: Actual official high and low records may vary slightly from our data, if they occured in-between our weather recording intervals... More about our weather records

Advertising

Nuremberg weather history for previous 24 hours

 ConditionsComfort  
Time TempWeatherWind HumidityBarometerVisibility
4:50 PM
Fri, Jul 31
73 °FSunny.6 mph29%30.01 "Hg10 mi
4:20 PM72 °FSunny.5 mph29%30.01 "Hg10 mi
3:50 PM72 °FSunny.6 mph29%30.04 "Hg10 mi
3:20 PM72 °FSunny.6 mph27%30.04 "Hg10 mi
2:50 PM72 °FSunny.6 mph27%30.04 "Hg10 mi
2:20 PM72 °FSunny.8 mph25%30.07 "Hg10 mi
1:50 PM70 °FSunny.7 mph31%30.07 "Hg10 mi
1:20 PM70 °FSunny.3 mph31%30.07 "Hg10 mi
12:50 PM68 °FSunny.5 mph38%30.09 "Hg10 mi
12:20 PM66 °FPassing clouds.5 mph40%30.09 "HgN/A
11:50 AM66 °FPassing clouds.8 mph43%30.09 "HgN/A
11:20 AM64 °FPassing clouds.6 mph46%30.09 "HgN/A
10:50 AM64 °FPassing clouds.5 mph49%30.09 "HgN/A
10:20 AM63 °FPassing clouds.3 mph52%30.09 "HgN/A
9:20 AM57 °FPassing clouds.3 mph63%30.12 "HgN/A
8:50 AM55 °FSunny.2 mph72%30.09 "Hg10 mi
8:20 AM54 °FSunny.2 mph72%30.09 "Hg10 mi
7:50 AM52 °FSunny.1 mph77%30.09 "Hg10 mi
7:20 AM48 °FSunny.2 mph82%30.09 "Hg10 mi
6:50 AM46 °FSunny.5 mph87%30.09 "Hg10 mi
6:20 AM43 °FPassing clouds.3 mph93%30.09 "HgN/A
5:50 AM43 °FClear.1 mph93%30.09 "Hg10 mi
5:20 AM45 °FClear.1 mph87%30.09 "Hg10 mi
4:50 AM45 °FClear.2 mph87%30.09 "Hg10 mi
4:20 AM45 °FClear.1 mph87%30.09 "Hg10 mi
3:50 AM46 °FClear.1 mph87%30.07 "Hg10 mi
3:20 AM48 °FClear.1 mph82%30.07 "Hg10 mi
2:50 AM50 °FClear.2 mph76%30.07 "Hg10 mi
2:20 AM48 °FClear.1 mph82%30.07 "Hg10 mi
1:50 AM48 °FClear.2 mph76%30.07 "Hg10 mi
1:20 AM50 °FClear.1 mph76%30.07 "Hg10 mi
12:50 AM50 °FClear.2 mph76%30.07 "Hg10 mi
12:20 AM50 °FClear.1 mph71%30.07 "Hg10 mi
11:20 PM
Thu, Jul 30
52 °FClear.1 mph77%30.04 "Hg10 mi
10:50 PM54 °FClear.1 mph67%30.04 "Hg10 mi
10:20 PM57 °FClear.1 mph55%30.04 "Hg10 mi
9:50 PM57 °FSunny.1 mph55%30.01 "Hg10 mi
9:20 PM59 °FSunny.1 mph51%30.01 "Hg10 mi
8:50 PM63 °FSunny.2 mph45%30.01 "Hg10 mi
8:20 PM63 °FSunny.5 mph45%30.01 "Hg10 mi
7:50 PM66 °FSunny.6 mph37%29.98 "Hg10 mi
7:20 PM68 °FPassing clouds.8 mph35%29.98 "HgN/A
6:50 PM68 °FPassing clouds.10 mph38%29.98 "HgN/A
6:20 PM66 °FPassing clouds.7 mph37%29.98 "HgN/A
5:50 PM68 °FPassing clouds.9 mph38%29.98 "HgN/A
5:20 PM70 °FPassing clouds.12 mph35%29.98 "HgN/A
Weather by CustomWeather, © 2015

See weather overviewHow to use our weather pages